Location: Unspecified
(0.0000°N, 0.0000°E)
Time: 13:35:37
(UTC+00:00)

Vanguard 3 - Pass Details

Date: 10 December 2017
Orbit: 508 x 3264 km, 33.3° (Epoch: 18 July)

Event Time Altitude Azimuth Distance (km) Brightness Sun altitude
Rises 18:35:35 0° 338° (NNW) 3,619 10.5 -9.8°
Reaches altitude 10° 18:38:33 10° 355° (N) 3,017 9.9 -10.5°
Maximum altitude 18:44:11 21° 42° (NE) 2,900 9.4 -11.8°
Enters shadow 18:49:39 15° 77° (ENE) 3,910 10.0 -13.0°
Drops below altitude 10° 18:52:16 10° 86° (E) 4,562 - -13.6°
Sets 18:58:14 0° 99° (E) 6,125 - -15.0°
